ECMWFNIL_sfc_thetae_021.txt.gz
Theta_e
290 289 289 288 288 288 287 286 286 285 285 285 284 284 283 284 284 283 283 282 282 282 282 282 282 282 282 281 281 281 281 280 280 280 280 280 280 280 279 279 280 279
289 288 288 288 287 287 286 286 286 285 284 284 283 283 283 283 282 282 281 281 281 281 281 281 281 281 280 280 280 279 279 279 279 281 279 279 279 279 279 279 279 279
288 287 287 286 285 285 285 285 285 284 283 283 283 282 282 282 281 281 281 280 280 280 280 280 280 280 279 279 279 279 278 278 278 279 279 279 279 279 279 279 279 279
287 286 286 285 285 284 284 283 283 282 282 281 281 281 281 281 281 280 280 280 279 279 279 279 279 279 279 278 278 278 278 278 278 279 278 278 279 279 278 279 279 279
286 285 285 284 284 284 283 282 281 281 281 281 281 281 280 280 279 279 279 279 279 278 278 278 278 278 278 278 278 277 277 277 278 278 277 277 277 277 277 277 277 277
285 284 284 283 283 282 281 280 280 280 280 280 280 280 279 279 279 278 278 278 278 277 277 277 277 277 277 277 277 276 276 276 276 276 275 275 275 276 276 276 276 275
283 283 282 282 281 281 280 280 280 280 280 280 279 279 279 278 278 277 277 277 277 277 276 276 276 276 276 275 275 275 275 275 274 274 273 274 274 274 274 274 274 274
282 282 281 280 280 280 279 279 279 279 279 279 278 278 278 277 277 277 277 276 276 276 275 275 275 275 275 274 274 273 273 273 273 272 272 272 272 272 272 273 273 272
281 280 280 279 278 278 278 278 278 278 278 277 277 277 277 277 276 276 276 275 275 274 274 274 274 273 273 273 273 272 272 272 272 272 271 271 271 271 271 272 271 271
280 279 278 278 277 277 277 277 277 277 277 276 276 276 276 276 276 275 274 274 273 273 273 273 272 272 272 272 272 271 271 271 271 271 271 270 270 270 270 270 270 270
278 278 277 276 276 276 276 276 276 276 276 275 275 275 275 274 274 274 273 272 272 272 272 272 272 271 271 271 271 271 271 270 270 270 270 270 270 270 271 270 270 270
277 276 276 276 276 276 276 276 275 275 275 275 274 274 273 273 272 272 272 271 272 271 271 271 271 271 271 271 271 271 271 270 270 270 270 270 270 271 270 270 270 271
276 276 276 276 276 276 276 275 275 275 274 273 273 272 272 271 272 271 271 271 271 271 271 271 270 270 270 270 270 270 270 270 270 270 270 271 271 271 271 272 272 271
276 276 276 276 276 276 275 275 274 274 273 272 272 271 270 270 270 270 270 270 270 270 270 270 270 270 270 270 270 271 271 270 270 271 271 271 272 272 272 272 272 272
276 276 276 275 275 275 274 273 273 272 271 271 270 270 270 270 269 269 269 269 269 269 270 270 270 270 270 270 270 270 271 271 271 272 272 272 272 272 272 272 272 272
276 275 275 274 274 273 273 272 271 270 270 269 269 268 268 268 268 268 268 268 268 269 270 270 270 270 271 273 273 272 272 272 273 273 273 272 272 272 272 273 273 274
275 274 274 273 273 272 272 271 270 269 268 267 267 267 267 267 267 267 267 268 269 269 269 269 270 270 272 273 274 276 274 273 273 273 273 273 273 273 272 273 274 274
274 273 273 272 271 270 269 269 268 267 266 266 266 266 266 266 266 267 268 269 269 269 269 269 269 271 273 274 275 276 276 274 274 273 273 273 273 273 273 273 273 273
273 272 271 270 270 269 268 267 266 265 265 265 265 266 266 266 266 267 268 268 268 268 268 269 269 271 273 274 275 276 276 276 274 274 273 273 273 273 273 273 273 273
272 271 270 269 268 267 266 265 264 264 265 265 265 266 265 266 266 267 267 267 268 268 267 268 268 270 272 274 275 276 277 276 274 274 274 273 273 273 273 273 273 273
271 270 269 267 266 266 265 265 264 264 265 265 265 265 265 266 266 266 267 267 266 266 266 266 267 271 273 274 275 276 277 277 274 273 273 273 273 273 273 273 273 273
269 268 267 266 265 265 264 264 264 264 264 265 265 266 266 267 267 267 266 265 266 266 266 266 267 271 272 273 275 276 277 274 273 272 272 272 272 273 273 273 273 273
268 267 266 265 264 264 264 264 264 264 264 265 265 265 265 266 266 266 266 266 265 265 265 265 266 269 272 273 275 276 275 272 272 272 272 272 272 273 273 273 274 274
267 266 265 265 264 264 263 264 264 265 264 265 264 264 265 265 265 265 266 266 265 265 265 265 265 268 272 273 274 275 275 272 272 271 271 272 272 273 273 274 274 276
266 266 265 264 264 264 264 264 264 264 265 265 264 265 265 265 265 265 265 265 265 265 267 267 267 268 272 273 274 275 274 272 272 271 270 271 271 272 273 274 274 275
265 265 264 264 264 264 264 264 264 264 264 264 264 264 264 265 265 265 264 264 265 265 266 267 267 268 270 273 274 274 275 273 272 271 270 271 272 272 272 272 273 273

ECMWFNIL_sfc_thetae_024.txt.gz
Theta_e
288 288 288 287 286 286 286 285 284 284 283 282 282 281 282 281 282 281 280 280 279 279 279 279 279 278 280 278 278 278 278 277 277 277 277 277 277 276 277 277 277 277
288 288 287 287 286 286 285 285 284 284 282 282 281 281 281 281 280 280 279 279 279 278 278 278 278 278 277 277 276 276 276 276 276 278 277 276 276 276 276 276 276 277
287 287 287 286 285 284 284 283 283 282 282 281 280 280 280 280 279 279 278 278 278 278 277 277 277 277 276 276 276 276 275 275 275 276 276 276 276 276 276 276 276 276
287 287 286 285 285 284 283 282 281 281 280 280 279 279 279 280 278 278 278 279 277 276 276 276 276 276 275 275 275 275 275 275 276 276 275 276 276 276 275 275 276 276
286 286 285 284 284 283 282 281 280 279 279 279 278 278 278 278 277 277 276 276 276 276 276 276 276 275 275 275 275 275 275 275 275 275 275 274 274 275 275 275 274 274
286 285 284 283 282 282 281 280 279 279 278 277 277 278 277 277 276 276 276 276 276 276 275 275 275 274 274 274 274 274 274 274 274 274 273 273 273 274 274 274 273 273
284 284 283 282 281 281 280 279 279 278 278 277 277 277 277 276 276 276 276 275 275 275 274 274 274 274 274 274 273 273 273 273 273 273 272 272 272 272 273 273 272 272
283 283 282 281 280 279 279 278 278 278 277 277 276 276 276 276 276 275 275 275 274 274 274 274 273 273 273 273 272 272 272 273 272 272 271 271 271 271 271 272 272 271
282 281 281 280 279 278 278 277 277 277 277 276 276 276 276 275 275 275 274 274 274 274 273 273 273 272 272 272 272 272 271 271 271 271 271 270 270 270 270 271 270 270
281 280 279 279 278 278 277 277 276 276 276 275 275 275 275 275 274 274 274 273 273 272 272 271 271 271 271 271 271 271 270 270 270 270 270 270 270 270 270 270 270 270
280 279 279 278 278 277 276 276 276 275 275 275 274 274 274 274 274 273 273 272 272 271 271 271 271 271 271 271 271 270 270 270 270 270 270 270 270 270 271 270 270 270
280 279 278 278 277 276 276 275 275 275 274 274 274 273 273 273 273 272 272 271 271 271 270 270 270 270 270 270 270 270 270 270 270 269 270 270 270 270 270 270 270 270
279 279 278 277 276 276 275 275 274 274 273 273 273 273 272 271 271 271 271 270 270 270 270 270 270 270 269 269 269 269 269 269 269 269 270 270 270 270 271 271 271 271
279 278 277 277 276 275 274 274 273 273 273 272 272 271 271 271 270 270 269 269 269 269 270 269 269 269 269 269 269 269 269 269 270 270 270 270 270 271 271 272 272 272
279 277 276 275 275 274 274 273 273 272 272 271 271 270 270 270 269 269 269 268 269 269 269 269 269 269 269 269 269 270 270 270 270 270 270 270 271 272 273 273 273 273
277 276 275 275 274 273 273 273 272 271 270 270 269 269 269 268 268 268 268 268 268 268 269 269 269 269 271 274 274 270 270 270 270 271 272 273 273 273 273 274 274 274
276 275 275 274 274 273 272 272 271 270 269 268 268 267 267 267 267 267 267 268 268 268 268 269 269 270 273 275 276 277 274 273 273 273 273 273 273 273 273 273 274 274
275 275 274 273 273 272 271 270 269 268 268 267 267 267 267 267 267 267 267 268 268 268 268 269 270 272 274 275 276 276 277 275 274 274 274 274 274 273 273 273 273 273
275 274 273 272 272 271 270 269 268 268 267 267 266 267 267 266 267 267 267 268 268 268 269 269 269 272 274 275 276 276 277 276 275 274 274 274 274 274 273 273 273 273
274 273 272 271 270 269 269 268 267 267 267 266 266 266 266 266 267 267 267 268 268 268 269 269 269 271 273 274 275 276 276 277 275 275 274 274 273 273 272 272 272 272
273 272 271 270 269 268 267 266 266 265 266 266 266 266 266 266 266 266 267 268 268 268 268 268 268 271 273 274 275 276 276 277 275 274 273 273 273 273 272 272 273 273
272 271 270 268 268 266 266 266 265 265 265 266 266 267 267 267 267 267 267 267 268 267 267 266 267 271 272 274 275 275 276 275 273 272 272 272 272 272 273 273 273 273
272 271 268 267 267 266 265 265 266 266 266 266 266 266 266 267 267 267 267 267 267 266 266 266 266 269 271 273 274 275 275 273 273 272 272 271 271 272 272 273 273 273
272 270 268 267 266 266 266 266 266 266 266 267 266 266 266 266 267 267 267 267 266 266 266 265 266 268 271 272 274 275 275 273 272 271 271 271 271 272 272 273 274 276
271 269 268 267 266 266 266 266 266 266 266 266 266 267 266 266 266 266 266 266 266 266 268 267 266 267 271 272 274 274 274 273 272 271 270 270 271 271 273 273 273 274
270 269 268 267 266 266 266 266 266 265 265 266 266 266 266 266 266 265 265 265 266 266 266 266 266 266 268 272 273 274 275 273 272 270 269 270 271 271 272 273 273 272

ECMWFNIL_sfc_thetae_030.txt.gz
Theta_e
289 289 288 288 288 288 287 286 286 285 285 285 284 284 284 284 284 283 283 282 281 281 280 280 280 279 280 279 279 278 278 278 277 277 277 277 276 276 276 276 275 275
289 289 288 288 288 287 287 287 286 286 285 285 285 285 284 284 283 283 282 281 281 280 280 280 279 279 279 278 278 278 277 277 277 278 276 276 276 276 276 275 275 275
289 288 288 287 287 287 287 286 286 286 285 285 285 284 284 284 283 282 282 281 280 280 279 279 279 279 278 278 278 278 277 277 276 277 276 276 276 275 275 275 275 275
289 289 288 288 288 287 286 285 285 285 285 284 284 284 284 283 282 282 281 281 280 279 279 279 279 278 278 278 277 277 277 276 276 276 276 275 275 275 275 275 275 275
288 288 288 288 287 287 285 285 284 285 284 284 284 283 283 282 281 281 280 280 280 279 279 278 278 278 278 277 277 276 276 276 276 276 275 275 275 275 275 275 274 274
288 288 288 287 287 286 285 285 284 284 284 283 283 283 282 282 281 281 280 280 279 279 278 278 278 277 277 277 276 276 276 275 275 275 275 274 274 275 275 275 274 274
288 287 287 287 286 285 285 284 284 284 284 283 282 282 282 281 281 281 280 280 279 279 278 278 277 277 277 277 276 275 275 275 275 275 274 274 274 273 274 274 274 273
287 287 286 286 285 285 284 284 284 284 283 282 282 282 281 281 281 281 280 279 279 278 278 277 277 277 276 276 276 275 274 274 274 274 274 273 273 273 273 273 273 272
287 286 285 285 285 284 284 284 284 283 282 282 281 281 281 281 281 280 280 279 278 278 277 277 277 276 276 276 275 275 274 274 274 274 273 273 272 272 272 272 271 271
286 285 284 284 284 285 284 284 283 282 282 281 281 281 280 280 280 279 279 278 278 277 277 276 276 276 275 275 275 275 274 274 273 273 273 273 272 272 271 271 271 271
285 285 284 284 284 285 284 284 283 282 281 281 280 280 280 279 279 279 278 278 277 277 276 276 276 275 275 275 274 274 274 273 273 273 272 272 272 271 272 271 271 270
285 284 284 284 284 284 284 283 282 281 281 281 280 279 279 279 278 278 278 277 277 277 276 276 275 275 274 274 274 273 273 273 272 272 272 271 271 271 271 271 270 270
285 284 285 285 285 284 284 283 282 281 280 280 280 279 278 278 278 277 277 277 277 276 275 275 274 274 274 273 273 272 272 272 271 271 271 270 270 270 271 271 270 270
285 285 285 285 284 284 283 282 282 281 280 280 279 279 278 278 277 277 276 276 276 275 275 274 274 273 273 272 272 271 271 271 271 270 270 270 270 270 270 270 270 270
285 285 285 284 283 283 282 282 281 280 280 279 278 278 278 277 277 276 275 275 274 274 273 273 273 273 272 272 271 271 271 270 270 270 270 269 269 269 270 270 270 271
285 284 284 283 283 282 282 281 281 280 279 278 277 277 277 276 276 275 275 274 273 272 272 272 272 272 274 276 275 271 270 270 270 270 270 270 270 270 270 271 271 271
285 284 283 283 283 282 282 281 280 279 278 277 277 276 275 275 275 274 273 273 273 272 271 271 272 272 277 278 278 277 271 270 269 270 270 270 270 270 270 271 272 272
285 284 283 282 282 281 280 280 279 277 277 276 275 275 274 274 273 273 273 272 272 271 271 271 271 275 279 280 279 279 275 270 270 270 270 271 271 271 272 273 273 273
284 283 282 281 281 281 280 278 277 277 276 275 275 274 273 272 273 273 272 272 271 271 270 271 270 277 280 281 280 280 278 273 270 271 271 271 271 272 273 273 274 274
283 282 281 281 280 279 278 277 276 276 276 275 274 273 272 272 272 272 271 271 271 271 270 270 270 276 280 281 281 280 279 275 271 271 272 273 273 274 274 274 274 274
282 281 281 280 279 278 277 276 276 276 275 274 273 273 272 272 271 271 271 270 270 270 270 270 270 277 281 282 282 281 280 276 272 273 274 274 274 275 275 275 275 275
282 281 280 279 278 277 276 276 275 275 274 274 273 272 272 272 271 271 270 270 270 270 270 269 270 277 281 282 282 282 282 276 274 274 274 274 274 275 275 275 275 274
282 281 280 278 277 276 275 275 275 274 274 273 272 272 272 271 271 271 270 270 270 270 270 270 270 276 281 282 282 283 281 276 275 274 274 274 274 274 274 274 273 273
282 281 279 278 276 276 275 276 275 275 274 272 272 271 271 271 270 270 270 270 270 269 270 270 270 275 282 282 282 282 280 275 275 273 273 272 272 273 272 272 272 274
279 280 279 277 276 276 276 275 275 274 273 272 272 272 271 271 270 270 269 269 270 270 272 271 270 275 281 282 282 282 279 275 274 273 272 272 271 271 272 271 272 273
278 279 279 278 277 276 276 275 275 273 272 271 272 271 271 270 270 269 269 269 270 270 270 271 270 274 278 281 281 281 280 274 273 272 271 271 271 270 270 271 271 272

ECMWFNIL_sfc_thetae_033.txt.gz
Theta_e
290 289 289 289 288 288 287 286 286 286 286 286 285 285 285 285 285 284 284 283 283 282 281 281 281 280 280 280 280 279 279 279 279 278 278 278 278 277 277 277 277 277
290 289 289 289 288 288 288 287 287 286 286 286 286 286 285 285 284 284 283 283 283 282 281 281 281 280 280 280 279 279 279 278 278 279 278 277 277 277 277 277 276 276
289 289 289 288 289 288 288 287 287 286 286 286 286 285 285 285 284 284 284 283 282 282 281 281 281 280 280 280 279 279 279 278 278 278 278 277 277 277 277 276 276 276
289 289 289 289 289 288 287 286 286 286 286 285 285 285 285 285 284 283 283 283 282 282 281 281 280 280 280 279 279 279 279 278 278 278 277 277 277 277 276 276 276 276
289 289 289 289 289 288 287 286 285 285 285 285 285 284 284 284 283 283 283 283 282 281 281 280 280 280 280 279 279 278 278 278 277 277 277 276 276 276 276 276 275 275
289 289 289 289 288 288 286 286 286 285 285 284 284 284 284 284 283 283 282 282 282 281 280 280 280 280 279 279 279 278 278 277 277 277 276 276 275 276 276 275 275 274
289 289 289 289 288 287 287 286 286 285 285 285 284 284 284 283 283 283 282 282 281 281 280 280 280 279 279 279 278 278 278 277 277 276 276 275 275 275 275 275 275 274
288 288 288 287 287 287 286 286 285 285 285 284 284 284 284 283 283 283 282 282 281 281 280 280 279 279 279 278 278 277 277 277 276 276 276 275 275 274 274 275 275 274
288 287 287 286 286 286 286 286 285 285 284 284 284 283 283 283 283 283 282 282 281 281 280 280 279 279 278 278 278 277 277 276 276 276 275 274 274 274 274 274 274 273
287 287 286 286 286 287 286 286 286 285 284 284 284 283 283 283 283 282 282 281 281 280 280 279 279 279 278 278 278 277 276 276 275 275 275 275 275 274 274 274 273 273
287 287 286 286 286 286 286 286 286 285 284 283 283 283 283 282 282 282 281 281 281 280 280 279 279 278 278 277 277 277 277 276 275 275 275 275 274 274 275 273 273 272
286 286 286 286 286 286 286 286 286 285 284 283 283 283 282 282 282 281 281 281 281 280 280 279 279 278 277 277 277 276 276 275 275 275 274 274 274 274 274 273 273 272
286 286 286 286 286 286 287 286 285 285 284 283 283 283 282 281 281 281 281 281 281 280 279 279 278 278 277 277 276 275 275 275 274 274 274 273 273 273 273 273 272 272
286 286 286 287 287 286 286 285 285 284 284 283 283 283 282 281 281 281 281 281 280 280 279 279 278 277 277 276 276 275 275 274 274 273 273 272 272 272 272 272 272 271
287 286 286 286 286 286 286 285 284 284 284 283 283 282 282 282 282 281 280 279 279 279 278 278 277 277 277 276 275 275 275 274 274 273 272 272 271 271 271 271 270 270
287 286 286 285 285 285 285 285 284 284 283 283 283 282 282 281 281 280 280 279 279 278 278 277 277 277 278 280 279 275 274 274 273 272 272 271 271 270 270 270 270 270
286 286 285 285 285 285 285 285 284 284 283 282 282 281 281 280 280 279 279 279 278 278 277 277 277 277 280 282 282 280 275 273 272 272 272 271 270 270 269 270 270 270
286 286 285 285 285 285 284 284 284 283 282 281 281 280 280 280 279 279 279 278 278 278 277 277 276 279 282 283 283 282 278 273 273 272 271 271 270 270 270 270 270 270
285 285 285 284 284 284 284 283 283 282 281 280 280 280 279 278 279 279 278 278 277 277 276 276 276 280 282 283 283 282 281 276 272 272 271 271 271 270 270 271 271 271
283 284 284 284 283 283 282 282 281 281 281 280 280 279 278 278 278 278 278 277 277 277 276 276 275 280 283 283 283 283 281 277 271 272 272 271 271 271 271 272 272 272
284 284 284 283 282 282 281 281 281 280 280 280 279 279 278 278 277 277 277 277 276 276 276 275 274 280 283 283 283 283 282 278 271 272 271 271 271 272 273 273 274 274
282 283 283 282 282 280 280 281 280 280 280 279 279 278 278 278 277 277 276 276 276 275 275 274 274 280 283 284 284 284 283 274 271 271 271 271 272 273 274 275 275 275
280 280 280 280 281 280 280 280 280 279 279 279 278 278 277 277 276 276 276 275 275 274 274 273 273 279 283 284 284 284 281 272 271 271 272 272 272 274 274 275 275 275
279 279 280 278 278 279 279 280 279 279 279 278 277 277 276 276 276 275 275 275 274 274 274 273 272 277 282 284 284 284 279 272 272 272 272 273 273 274 275 275 275 277
277 277 279 278 278 278 277 278 278 278 277 276 276 276 275 275 274 274 274 273 273 273 275 274 272 275 282 283 284 284 278 273 273 272 272 273 273 274 274 274 275 276
277 277 278 278 278 276 275 277 275 275 274 274 274 274 274 274 273 273 272 272 273 273 273 274 272 273 279 284 284 284 280 274 273 273 272 272 273 273 272 272 273 274